loading
|
Showing default

CHAMRAN-1, 61072

Orbit data source: Space-Track

CHAMRAN-1, 61072 is an Iranian payload satellite in LEO that was launched on Sat, 14 Sep 2024 UTC via a QAEM-100 launch vehicle from the Sharud Missile Test Site (SMTS). Payloads include a variety of satellites, spacecraft, and rockets equipped with specific instruments for various scientific and technological missions. These include communications satellites like Starlink; space stations such as the ISS; scientific satellites like the Hubble; Earth observation satellites from companies like Planet Labs, Umbra, and HawkEye 360; GPS; miniature CubeSats for education and research; and military/defense satellites.

Loading next visibility...
Next conjunction unknown
Loading greatness...
CHAMRAN-1 details
Identifier
61072, 2024-165B
Orbit
LEO
Last TLE update3 hours ago
Origin
Flag of IRIEI/IRSA (IR / IRAN)
ManufacturerIEI
MissionOperational spacecraft
Bus & MotorUnknown bus, Unknown motor
Mass60 kg wet, 60 kg dry
Launch date (UTC)
2024-09-14 (1 month ago)
Launch vehicle
QAEM-100
Launch site
Sharud Missile Test Site (SMTS)
Object type
Payload
Rocket body
Debris
Shape & HBRUnknown
Radar Cross SectionMedium (>0.1 m² and <1 m²)

Expand to show TLE details & history

TLE from 3 hours ago
0 CHAMRAN-1
1 61072U 24165B   24288.53584738  .00011208  00000-0  72972-3 0  9993
2 61072  64.0892 240.8247 0016163 291.5722  68.3670 15.08219980  4567
Epoch: 2024-10-14T12:51Z
Definitive object data (Epoch: 2024-10-14T12:51:37.213Z)
Latitude0.00002°
Longitude24.35807°
Altitude539.495 km
Speed7.596 km/s
True Right ascension16h 03m 17s
True Declination0° 00' 00"
Sunlit
Object was in daylight at TLE epoch
Predictive object data (real-time)
Latitude-47.06917°
Longitude-7.33272°
Altitude547.943 km
Speed7.593 km/s
Apparent Right ascension18h 17m 41s
Apparent Declination-64° 34' 14"
Sunlit
Object is in daylight
Predictive observer data (real-time)
Local Sidereal Time10:22:27
Azimuth146.099° SSE
Elevation-47.577°
Doppler factor1
Orbital elements
Apogee551.466 km
Perigee529.102 km
Semi-major axis6,918.421 km
Eccentricity0.0016163
Inclination64.0892°
RAAN240.8247°
Arg. of periapsis291.5722°
True anomaly68.5393°
Mean anomaly68.367°
Eccentric anomaly68.45314°
Mean motion3.77166 °/min
BSTAR0.00072972
Period95.45 mins
No data available
No data available
Other satellites on launch #165 in the year 2024 (2024-09-14 UTC)

CHAMRAN-1 Visibility forecast

Observer location: 39.9160978°, -105.1181434

Span
Click to sort rows by Start time (UTC) header in descending order
Start Az.
Max El. time (UTC)
Max El. Az.
Max El.
End time (UTC)
End Az.
7 mins2024-10-14 22:32:12.546Z193.687° SSW2024-10-14 22:36:12.546Z104.215° ESE37.382°2024-10-14 22:39:12.546Z45.687° ENE
4 mins2024-10-15 00:13:12.546Z292.63° NW2024-10-15 00:14:12.546Z310.279° NW16.462°2024-10-15 00:17:12.546Z358.211° N
5 mins2024-10-15 06:54:12.546Z1.65° NNE2024-10-15 06:56:12.546Z48.641° ENE27.818°2024-10-15 06:59:12.546Z108.853° ESE
5 mins2024-10-15 08:32:12.546Z287.924° WNW2024-10-15 08:34:12.546Z250.44° W21.462°2024-10-15 08:37:12.546Z197.289° SSW